Location: Oak Glen
(34.0495°N, 116.9470°E)
Time: 20:47:08
(UTC-07:00)

Vanguard 1 Rocket - Visible Passes

Search period start: 18 October 2017 00:00
Search period end: 28 October 2017 00:00
Orbit: 655 x 4222 km, 34.3° (Epoch: 18 October)

Date Brightness Start Highest point End Pass type
(mag) Time Alt. Az. Time Alt. Az. Time Alt. Az.
18 Oct 10.7 12:54:24 10° S 12:59:38 13° SSE 13:03:45 10° SE visible
19 Oct 9.8 14:05:47 10° SSW 14:15:04 28° SSE 14:20:47 10° E visible
20 Oct 10.4 12:53:58 10° SSW 13:03:09 21° SSE 13:09:18 10° ESE visible
21 Oct 10.9 11:43:37 10° S 11:50:42 14° SSE 11:56:10 10° ESE visible
21 Oct 9.4 14:07:33 10° SW 14:18:30 38° SSE 14:24:42 10° E visible
22 Oct 10.1 12:54:45 10° SSW 13:06:37 29° SSE 13:13:44 10° E visible
23 Oct 10.6 11:47:42 16° S 11:54:12 21° SSE 12:01:51 10° ESE visible
23 Oct 9.1 14:09:40 10° SW 14:21:52 49° SSE 14:28:24 10° E visible
24 Oct 11.1 10:41:37 14° SE 10:41:37 14° SE 10:47:50 10° ESE visible
24 Oct 9.7 12:59:01 16° SSW 13:10:01 38° SSE 13:17:43 10° E visible
25 Oct 10.3 11:52:47 25° S 11:57:35 29° SSE 12:06:23 10° E visible
25 Oct 8.8 14:12:04 10° WSW 14:25:13 61° SSE 14:31:57 10° E visible
26 Oct 10.8 10:46:25 21° SE 10:46:25 21° SE 10:53:51 10° ESE visible
26 Oct 9.5 13:03:47 23° SW 13:13:20 49° SSE 13:21:26 10° E visible
27 Oct 10.1 11:57:17 34° S 12:00:54 38° SSE 12:10:26 10° E visible
27 Oct 8.7 14:14:42 10° WSW 14:28:31 72° SSE 14:35:28 10° E visible
